NOAA 16 DEB, 41077

Orbit data source: Space-Track

NOAA 16 DEB, 41077 is space debris in SSO originally from a launch on Thu, 21 Sep 2000 UTC launched from the Air Force Western Test Range (AFWTR). Debris objects in space refer to the collection of defunct objects orbiting the Earth. Examples of debris include non-operational satellites, rocket bodies, and fragments generated from explosions, collisions, or faulty payload assembly.

Loading next visibility...
Identifier
41077, 2000-055AL
Orbit
SSO
Country
Flag of USUS
Related business
Manufacturer
Unknown
Mission
Spacecraft
Bus & Motor
Unknown
Mass
Unknown
Launch date (UTC)
2000-09-21 (25 years ago)
Launch vehicle
Unknown
Launch site
Air Force Western Test Range (AFWTR)
Object type
Payload
Rocket body
Debris
Shape & HBR
Unknown
Radar Cross Section
Small (<0.1 m²)

Expand to show TLE details & history
Last TLE update: 23 hours ago

TLE from 23 hours ago
0 NOAA 16 DEB
1 41077U 00055AL  25242.03267396  .00000462  00000-0  36529-3 0  9990
2 41077  98.8230 262.1740 0112181 266.9626  91.8694 13.93529227495686
Epoch: 2025-08-30T00:47Z
TLE epoch observation values (Epoch: 2025-08-30T00:47:03.03Z)
Latitude
-0.00001°
Longitude
-88.06141°
Altitude
922.75 km
Speed
7.389 km/s
True Right ascension
17h 28m 41s
True Declination
0° 00' 00"
Sunlit
Object was in daylight at epoch
Visualization orbit readout
Latitude
Unknown
Longitude
Unknown
Altitude
Unknown
Speed
Unknown
Apparent Right ascension
Unknown
Apparent Declination
Unknown
Sunlit
N/A
Visualization observer readout
Local Sidereal Time
15:43:14
Azimuth
Unknown
Elevation
Unknown
Doppler factor
Unknown
Orbital elements
Apogee altitude
995.286 km
Perigee altitude
831.69 km
Semi-major axis
7,291.625 km
Eccentricity
0.01122
Inclination
98.823°
RAAN
262.174°
Arg. of periapsis
266.9626°
True anomaly
93.15352°
Mean anomaly
91.8694°
Eccentric anomaly
92.51153°
Mean motion
3.48583 °/min
Orbital period
103.28 mins
BSTAR
0.00036529
Loading maneuver chart data...
Computing Atmospheric mass density...
Loading historical data...
Loading historical data...
Loading historical data...
Loading historical data...
Loading historical data...
Loading historical data...
Loading historical data...

Documentation

Showing up to 5 results
|